Location: American Medical Response
(33.3472°N, 96.5511°W)
Time: 08:15:03
(UTC+00:00)

H-2A R/B - Pass Details

Date: 06 July 2022
Orbit: 577 x 651 km, 98.5° (Epoch: 07 August)

Event Time Altitude Azimuth Distance (km) Brightness Sun altitude
Rises 03:57:32 0° 347° (NNW) 2,951 6.6 -23.1°
Reaches altitude 10° 04:01:00 10° 318° (NW) 2,048 5.8 -23.5°
Maximum altitude 04:02:48 12° 294° (WNW) 1,897 5.3 -23.8°
Drops below altitude 10° 04:04:37 10° 270° (W) 2,051 5.2 -24.0°
Sets 04:08:06 0° 241° (WSW) 2,961 5.6 -24.4°
